www.pogodaiklimat.ru

Погода и климат >> Архив погоды >> Португалия >> Porto


АРХИВ ПОГОДЫ в Porto

Время (UTC), дата Ветер
(напр.,м/с)
 
Видим.   Явления Облачность Т
(С)
Тd
(С)
f
(%)
Тe
(С)
Тes
(С)
Комфортность P
(гПа)
Po
(гПа)
Тmin
(С)
Tmax
(С)
R
(мм)
R24
(мм)
S
(см)
10 11.12 н/о 997.7 989.4 1
11 11.12 н/о 998.4 990.2 1
12 11.12 н/о 999.9 991.6 0.8
13 11.12 н/о 1001.0 992.7 0.5
14 11.12 н/о 1002.0 993.8
15 11.12 н/о 1003.3 995.1
16 11.12 н/о 1005.1 996.8
17 11.12 н/о 1006.7 998.4
22 11.12 н/о 1012.9 1004.5
23 11.12 н/о 1014.0 1005.5
00 12.12 штиль 0 50 км ?/? 1014.8 1006.3
01 12.12 н/о 1015.0 1006.5
02 12.12 н/о 1015.5 1007.0
03 12.12 н/о 1016.1 1007.5
04 12.12 н/о 1017.1 1008.5
05 12.12 н/о 1017.7 1009.1
06 12.12 н/о 1018.3 1009.7
07 12.12 н/о 1019.3 1010.7
08 12.12 н/о 1019.8 1011.2
09 12.12 н/о 1020.6 1012.0
10 12.12 н/о 1021.6 1013.1
11 12.12 н/о 1022.3 1013.8
12 12.12 н/о 1021.8 1013.4
13 12.12 н/о 1021.9 1013.5
14 12.12 н/о 1022.6 1014.2
15 12.12 н/о 1022.3 1013.9
16 12.12 н/о 1022.7 1014.3
17 12.12 н/о 1022.9 1014.5
18 12.12 н/о 1023.9 1015.4
19 12.12 н/о 1024.3 1015.8
20 12.12 н/о 1024.3 1015.8
21 12.12 н/о 1025.1 1016.6
22 12.12 н/о 1025.3 1016.8
23 12.12 н/о 1025.8 1017.3
00 13.12 дымка н/о 1025.5 1017.0
01 13.12 н/о 1025.8 1017.3
02 13.12 н/о 1025.5 1017.0
03 13.12 н/о 1025.6 1017.1
04 13.12 н/о 1025.4 1016.9
05 13.12 н/о 1025.1 1016.7
06 13.12 слабый дождь н/о 1025.5 1017.1
07 13.12 н/о 1025.8 1017.4 0.2
08 13.12 н/о 1026.6 1018.1
09 13.12 н/о 1026.3 1017.9 0.2
10 13.12 н/о 1027.4 1019.0
11 13.12 н/о 1027.3 1018.9
12 13.12 н/о 1027.4 1019.0 0.4
13 13.12 н/о 1026.8 1018.5
14 13.12 н/о 1026.3 1017.9
15 13.12 н/о 1026.2 1017.8
16 13.12 н/о 1026.2 1017.8
17 13.12 н/о 1026.1 1017.7 0.1
18 13.12 слабая морось н/о 1026.2 1017.8 1
19 13.12 н/о 1026.3 1017.9 0.6
20 13.12 н/о 1026.2 1017.8 0.6
21 13.12 н/о 1026.4 1018.0 3
22 13.12 н/о 1026.4 1018.0 0.2
23 13.12 н/о 1026.2 1017.8 0.5
00 14.12 слабая морось н/о 1025.9 1017.5 3
01 14.12 н/о 1025.1 1016.7 0.9
02 14.12 н/о 1024.7 1016.4 3
03 14.12 н/о 1024.5 1016.2 1
04 14.12 н/о 1023.7 1015.4 0.9
05 14.12 н/о 1023.1 1014.8 0.5
06 14.12 слабый дождь {морось, туман} н/о 1022.8 1014.5 0.4
07 14.12 н/о 1023.0 1014.7 1
08 14.12 н/о 1022.9 1014.6 0.1
09 14.12 н/о 1022.7 1014.4 0.1
10 14.12 н/о 1022.9 1014.6 0.1
11 14.12 н/о 1022.9 1014.6
12 14.12 слабая морось {дождь} н/о 1022.3 1014.0 2
13 14.12 н/о 1021.2 1012.9 0.6
14 14.12 н/о 1020.1 1011.8 1
15 14.12 н/о 1019.5 1011.2 0.3
16 14.12 н/о 1019.6 1011.3 2
17 14.12 н/о 1019.7 1011.4
18 14.12 н/о 1019.7 1011.4
19 14.12 н/о 1019.6 1011.3
20 14.12 н/о 1019.8 1011.5
21 14.12 н/о 1019.9 1011.6 4
22 14.12 н/о 1019.8 1011.5
23 14.12 н/о 1019.5 1011.2
00 15.12 н/о 1019.0 1010.7
01 15.12 н/о 1017.7 1009.4
02 15.12 н/о 1017.2 1008.9
03 15.12 н/о 1016.7 1008.4 3
04 15.12 н/о 1015.8 1007.5 3
05 15.12 н/о 1015.4 1007.1 3
06 15.12 в посл. час дождь {ливн. осадки} н/о 1014.7 1006.4 0.8
07 15.12 н/о 1015.4 1007.1
08 15.12 н/о 1015.9 1007.6
09 15.12 н/о 1016.1 1007.8
10 15.12 н/о 1016.8 1008.5
11 15.12 н/о 1017.4 1009.1
12 15.12 н/о 1017.4 1009.1
13 15.12 н/о 1017.0 1008.7
14 15.12 н/о 1016.8 1008.5
15 15.12 н/о 1017.0 1008.7
16 15.12 н/о 1017.7 1009.4
17 15.12 н/о 1018.4 1010.0
18 15.12 штиль 0 50 км ?/? +1 +1 очень
холодно
1018.9 1010.4
19 15.12 н/о 1019.7 1011.3
20 15.12 н/о 1020.7 1012.2
21 15.12 н/о 1021.0 1012.5
22 15.12 н/о 1021.3 1012.8
23 15.12 н/о 1021.6 1013.1
00 16.12 н/о 1022.3 1013.7
01 16.12 н/о 1022.4 1013.8
02 16.12 н/о 1022.3 1013.7
03 16.12 н/о 1022.9 1014.3
04 16.12 н/о 1023.0 1014.4
05 16.12 н/о 1023.0 1014.4
06 16.12 н/о 1023.3 1014.7
07 16.12 н/о 1024.0 1015.4
08 16.12 н/о 1024.8 1016.2
09 16.12 н/о 1025.6 1017.0
10 16.12 н/о 1026.4 1017.9
11 16.12 н/о 1027.2 1018.7
12 16.12 штиль 0 50 км ?/? +20.3 +19 +19 тепло 1026.9 1018.5
13 16.12 н/о 1026.5 1018.1
14 16.12 н/о 1026.2 1017.8
15 16.12 н/о 1026.0 1017.6
16 16.12 н/о 1026.3 1017.9
17 16.12 н/о 1027.0 1018.5
18 16.12 н/о 1027.5 1019.0
19 16.12 н/о 1028.2 1019.7
20 16.12 н/о 1028.9 1020.4
21 16.12 н/о 1029.5 1020.9
22 16.12 н/о 1029.8 1021.2
23 16.12 н/о 1030.3 1021.7
00 17.12 н/о 1030.7 1022.1
01 17.12 н/о 1030.8 1022.2
02 17.12 н/о 1030.7 1022.0
03 17.12 н/о 1031.2 1022.5
04 17.12 н/о 1031.0 1022.3
05 17.12 н/о 1031.2 1022.5
06 17.12 н/о 1031.4 1022.7
07 17.12 н/о 1031.7 1023.0
08 17.12 н/о 1032.3 1023.6
09 17.12 штиль 0 50 км ?/? 1032.9 1024.3
10 17.12 н/о 1033.7 1025.1
11 17.12 н/о 1033.9 1025.4
12 17.12 штиль 0 50 км ?/? -0.4 0 0 очень
холодно
1033.2 1024.7
13 17.12 н/о 1032.5 1024.1
14 17.12 н/о 1032.2 1023.8
15 17.12 н/о 1032.1 1023.7
16 17.12 н/о 1032.7 1024.2
17 17.12 н/о 1032.9 1024.4
18 17.12 н/о 1033.2 1024.6
19 17.12 н/о 1033.8 1025.3
20 17.12 н/о 1034.3 1025.7
21 17.12 н/о 1034.3 1025.7
22 17.12 н/о 1034.7 1026.1
23 17.12 н/о 1035.4 1026.7
00 18.12 н/о 1035.6 1026.9
01 18.12 н/о 1035.2 1026.5
02 18.12 н/о 1035.0 1026.3
03 18.12 н/о 1035.4 1026.7
04 18.12 н/о 1035.1 1026.4
05 18.12 н/о 1035.2 1026.5
06 18.12 н/о 1035.0 1026.3
07 18.12 н/о 1034.9 1026.2
08 18.12 н/о 1035.0 1026.3
09 18.12 н/о 1035.2 1026.5

 

Местоположение метеостанции Porto (Португалия): широта 41.23 долгота -8.68 высота над уровнем моря 77 м.

В архиве по умолчанию представлена погода в Porto за последнюю неделю. Архивные данные за месяц целиком и за предыдущие месяцы, начиная с января 2011 года, Вы можете получить, выбрав интересующий диапазон дат из раскрывающегося списка и нажав кнопку "Ввод!".

Внимание! Время в таблицах - всемирное. Для получения местного времени необходимо прибавить поправку, которая в Porto равна 0 ч.

Смотрите также архив погоды в соседних городах и на ближайших метеорологических станциях:

Погода в Ovar (Португалия) (35 км)
Погода в Viana Do Castelo (Португалия) (46 км)
Погода в Vila Real (Португалия) (80 км)
Погода в Viseu (Португалия) (88 км)
Погода в Vigo (Испания) (111 км)
Погода в Coimbra (Португалия) (121 км)
Погода в Penhas Douradas (Португалия) (131 км)
Погода в Pontevedra (Испания) (134 км)
Погода в Orense (Испания) (140 км)
Погода в Monte Real (Португалия) (157 км)

Пояснения к столбцам:

Ветер - указаны скорость ветра в м/с - средняя за 10 мин, порывы в срок и между сроками (в фигурных скобках) и направление, откуда дует ветер: С - северный, СВ - северо-восточный, В - восточный, ЮВ - юго-восточный, Ю - южный, ЮЗ - юго-западный, З - западный, СЗ - северо-западный.
Видимость - горизонтальная дальность видимости в метрах или километрах. При видимости от 1 до 10 км при отсутствии осадков обычно наблюдается дымка, при ухудшении видимости до 1 км и менее - туман. В сухую погоду видимость может ухудшаться дымом, пылью или мглою.
Явления - указаны атмосферные явления, наблюдавшиеся в срок или в последний час перед сроком; фигурными скобками обозначены явления, наблюдавшиеся между сроками (за 1-3 часа до срока); квадратными скобками обозначены град или гололедные отложения с указанием их диаметра в мм.
Облачность - указаны через наклонную черту общая и нижняя облачность в баллах и высота нижней границы облаков в метрах; квадратными скобками обозначены формы облаков: Ci - перистые, Cs - перисто-слоистые, Cc - перисто-кучевые, Ac - высококучевые, As - высокослоистые, Sc - слоисто-кучевые, Ns - слоисто-дождевые, Cu - кучевые, Cb - кучево-дождевые. Подробнее классификацию облаков см. в Атласе облаков (PDF).
T - Температура воздуха - температура, измеренная на высоте 2 м над землей.
Td - Температура точки росы - температура, при понижении до которой содержащийся в воздухе водяной пар достигнет насыщения.
f - Относительная влажность воздуха - влажноcть воздуха, измеренная на высоте 2 м над землей.
Te - Эффективная температура - температура, которую ощущает одетый по сезону человек в тени. Характеристика душности погоды. При расчете учитывается влияние влажности воздуха и скорости ветра на теплоощущения человека.
Tes - Эффективная температура на солнце - температура, которую ощущает человек, с поправкой на солнечный нагрев. Характеристика знойности погоды. Зависит от высоты солнца над горизонтом, облачности и скорости ветра. Ночью, в пасмурную погоду, а также при ветре 12 м/с и более поправка равна нулю.
P - Атмосферное давление - приведенное к уровню моря атмосферное давление.
Po - Атмосферное давление - измеренное на уровне метеостанции атмосферное давление.
Tmin - Минимальная температура - минимум температуры воздуха на высоте 2 м над землей.
Tmax - Максимальная температура - максимум температуры воздуха на высоте 2 м над землей.
R - Количество осадков - Количество выпавших осадков за период времени, мм. При наведении курсора мыши на число - период времени, за который выпало указанное количество осадков.
R24 - Количество осадков - Количество выпавших осадков за 24 часа, мм.
S - Снежный покров - Высота снежного покрова, см. При наведении курсора мыши на число - состояние снежного покрова и степень покрытия местности в баллах.